Weather History for KBLH - April, 2012

Change the Weather History Date:

Monday, April 30, 2012

  Actual Average (KNYL) Record (KNYL)
Temperature  
Mean Temperature 80 °F 77 °F  
Max Temperature 97 °F 90 °F 103 °F (1943)
Min Temperature 66 °F 64 °F 45 °F (1942)
Degree Days  
Heating Degree Days 0 0  
Month to date heating degree days 12  
Since 1 July heating degree days 686  
Cooling Degree Days 16 12  
Month to date cooling degree days 253  
Year to date cooling degree days 406  
Growing Degree Days 30 (Base 50)    
Moisture  
Dew Point 39 °F    
Average Humidity 23    
Maximum Humidity 40    
Minimum Humidity 10    
Precipitation  
Precipitation 0.00 in 0.00 in 0.10 in (2009)
Month to date precipitation 0.15  
Year to date precipitation 1.24  
Sea Level Pressure  
Sea Level Pressure 29.81 in    
Wind  
Wind Speed 7 mph (South)    
Max Wind Speed 20 mph    
Max Gust Speed 24 mph    
Visibility 10 miles    
Events      
T = Trace of Precipitation, MM = Missing Value Source: NWS Daily Summary

Daily Weather History Graph

Daily Weather History Graph

Search for Another Location

Airport or City:

Trip Planner

Search our weather history database for the weather conditions in past years. The results will help you decide how hot, cold, wet, or windy it might be!

Date:

Astronomy

Apr. 30, 2012 Rise Set
Actual Time 5:50 AM PDT 7:21 PM PDT
Civil Twilight 5:24 AM PDT 7:48 PM PDT
Nautical Twilight 4:52 AM PDT 8:20 PM PDT
Astronomical Twilight 4:19 AM PDT 8:53 PM PDT
Moon 1:39 PM PDT (4/30) 1:59 AM PDT (4/30)
Length of Visible Light 14h 23m
Length of Day
13h 30m
Waxing Gibbous, 65% of the Moon is Illuminated
Apr 30
Waxing Gibbous
May 5
Full
May 12
Last Quarter
May 20
New
May 28
First Quarter

Hourly Weather History & Observations

Time (PDT) Temp. Dew Point Humidity Pressure Visibility Wind Dir Wind Speed Gust Speed Precip Events Conditions
12:52 AM 75.0 °F 42.1 °F 31% 29.82 in 10.0 mi South 6.9 mph - N/A   Clear
1:52 AM 75.0 °F 41.0 °F 29% 29.81 in 10.0 mi South 6.9 mph - N/A   Clear
2:52 AM 73.0 °F 41.0 °F 31% 29.81 in 10.0 mi Calm Calm - N/A   Clear
3:52 AM 70.0 °F 41.0 °F 35% 29.81 in 10.0 mi SE 3.5 mph - N/A   Clear
4:52 AM 69.1 °F 43.0 °F 39% 29.82 in 10.0 mi Calm Calm - N/A   Clear
5:52 AM 66.9 °F 42.1 °F 40% 29.83 in 10.0 mi Calm Calm - N/A   Clear
6:52 AM 66.9 °F 39.0 °F 36% 29.85 in 10.0 mi Calm Calm - N/A   Clear
7:52 AM 73.0 °F 42.1 °F 33% 29.87 in 10.0 mi NNE 3.5 mph - N/A   Clear
8:52 AM 78.1 °F 42.1 °F 28% 29.87 in 10.0 mi Calm Calm - N/A   Clear
9:52 AM 84.9 °F 44.1 °F 24% 29.88 in 10.0 mi South 5.8 mph - N/A   Clear
10:52 AM 89.1 °F 46.0 °F 22% 29.87 in 10.0 mi South 8.1 mph - N/A   Clear
11:52 AM 93.0 °F 45.0 °F 19% 29.86 in 10.0 mi SSE 11.5 mph - N/A   Clear
12:52 PM 93.9 °F 43.0 °F 17% 29.85 in 10.0 mi North - - N/A   Clear
1:52 PM 95.0 °F 37.9 °F 14% 29.83 in - South 12.7 mph 20.7 mph N/A   Unknown
2:52 PM 95.0 °F 30.9 °F 10% 29.80 in - South 16.1 mph 23.0 mph N/A   Clear
3:52 PM 93.9 °F 35.1 °F 13% 29.77 in 10.0 mi South 15.0 mph 24.2 mph N/A   Clear
4:52 PM 93.0 °F 37.0 °F 14% 29.75 in 10.0 mi South 19.6 mph - N/A   Clear
5:52 PM 91.0 °F 42.1 °F 18% 29.74 in 10.0 mi South 13.8 mph - N/A   Clear
6:52 PM 90.0 °F 35.1 °F 14% 29.74 in 10.0 mi SSW 13.8 mph - N/A   Clear
7:52 PM 84.9 °F 35.1 °F 17% 29.75 in 10.0 mi SSE 6.9 mph - N/A   Clear
8:52 PM 84.9 °F 30.0 °F 14% 29.76 in 10.0 mi SSW 10.4 mph - N/A   Clear
9:52 PM 82.0 °F 32.0 °F 16% 29.77 in 10.0 mi SSW 11.5 mph - N/A   Clear
10:52 PM 81.0 °F 34.0 °F 18% 29.76 in 10.0 mi SSW 13.8 mph - N/A   Clear
11:52 PM 78.1 °F 37.9 °F 24% 29.75 in 10.0 mi SSW 11.5 mph - N/A   Clear